Home   Weather   Kugluktuk   Past weeks

Flag for Canada Past Weather in Kugluktuk, Nunavut, Canada — Yesterday and Last 2 Weeks

25 °F

Light snow. Fog.

Feels Like: 16 °F
Forecast: 17 / 23 °F
Wind: 8 mph from Southwest

Location: Coppermine

Current Time: Oct 25, 2016 at 8:31:00 PM

Latest Report: Oct 25, 2016 at 8:00 PM

Visibility: 12 mi

Pressure: 30.24 "Hg

Humidity: 93%

Dew Point: 23 °F

Location of KugluktukLocation

Past Weather in Kugluktuk — Graph


Kugluktuk Temperature Yesterday

Maximum temperature yesterday: 27 °F (at 12:00 AM)
Minimum temperature yesterday: 18 °F (at 8:00 AM)
Average temperature yesterday: 22 °F

High & Low Weather Summary for the Past Weeks

High30 °F (Oct 10, 11:45 PM)93% (Oct 11, 1:00 AM)30.55 "Hg (Oct 11, 1:00 AM)
Low9 °F (Oct 15, 9:00 AM)64% (Oct 11, 5:00 AM)29.77 "Hg (Oct 15, 12:00 PM)
Average20 °F84%30.08 "Hg
* Reported Oct 10 7:00 PM — Oct 25 7:00 PM, Kugluktuk, Weather by CustomWeather, © 2016

Note: Actual official high and low records may vary slightly from our data, if they occured in-between our weather recording intervals... More about our weather records


Kugluktuk Weather History for the Previous 24 Hours

Scroll right to see more
Time TempWeatherWind HumidityBarometerVisibility
7:00 PM
Tue, Oct 25
27 °FFog.10 mph93%30.24 "Hg10 mi
6:00 PM27 °FLight mixture of precip. Mostly cloudy.9 mph93%30.24 "Hg12 mi
5:00 PM28 °FLight mixture of precip. Mostly cloudy.8 mph86%30.24 "Hg12 mi
4:00 PM28 °FLight mixture of precip. Mostly cloudy.10 mph86%30.25 "Hg12 mi
3:00 PM28 °FMostly cloudy.10 mph86%30.25 "Hg12 mi
2:45 PM27 °FMostly cloudy.12 mph93%30.24 "Hg12 mi
2:00 PM27 °FLight snow. Overcast.10 mph93%30.25 "Hg8 mi
1:00 PM27 °FLight snow. Mostly cloudy.12 mph93%30.25 "Hg6 mi
12:00 PM27 °FLight snow. Cloudy.12 mph86%30.25 "Hg6 mi
11:00 AM27 °FLight snow. Cloudy.13 mph86%30.26 "Hg6 mi
10:00 AM25 °FLight snow. Overcast.14 mph93%30.27 "Hg3 mi
9:00 AM25 °FLight snow. Overcast.10 mph93%30.28 "Hg1 mi
8:50 AM25 °FLight snow. Overcast.9 mph93%30.28 "Hg2 mi
8:00 AM25 °FLight snow. Overcast.13 mph93%30.28 "Hg3 mi
7:00 AM25 °FLight snow. Overcast.13 mph86%30.29 "Hg5 mi
6:00 AM25 °FLight snow. Overcast.13 mph86%30.29 "Hg5 mi
5:00 AM25 °FLight snow. Mostly cloudy.10 mph80%30.31 "Hg12 mi
4:00 AM23 °FLight snow. Overcast.6 mph93%30.32 "Hg4 mi
3:00 AM23 °FLight snow. Overcast.7 mph86%30.33 "Hg4 mi
2:00 AM21 °FLight snow. Overcast.9 mph93%30.34 "Hg8 mi
1:00 AM21 °FLight snow. Overcast.8 mph86%30.35 "Hg15 mi
12:00 AM19 °FPassing clouds.10 mph86%30.35 "Hg15 mi
11:00 PM
Mon, Oct 24
21 °FPassing clouds.9 mph86%30.37 "Hg15 mi
10:00 PM19 °FPassing clouds.7 mph86%30.38 "Hg15 mi
9:00 PM19 °FPassing clouds.8 mph86%30.39 "Hg15 mi
8:00 PM23 °FLight snow. Passing clouds.10 mph80%30.40 "Hg12 mi
Weather by CustomWeather, © 2016

See weather overviewHow to use our weather pages